Location: Little Baddow
(51.7333°N, 0.5667°E)
Time: 14:35:51
(UTC+00:00)

COSMOS 2428 - Pass Details

Date: 21 February 2026
Orbit: 843 x 856 km, 70.9° (Epoch: 6 March)

Event Time Altitude Azimuth Distance (km) Brightness Sun altitude
Rises 06:09:43 0° 176° (S) 3,400 6.0 -8.5°
Reaches altitude 10° 06:12:23 10° 166° (SSE) 2,471 5.4 -8.1°
Maximum altitude 06:17:18 31° 106° (ESE) 1,450 4.9 -7.3°
Drops below altitude 10° 06:22:15 10° 46° (NE) 2,494 5.7 -6.6°
Sets 06:24:57 0° 36° (NE) 3,436 6.3 -6.2°
